Paramount Hamilton — 2CWB2 — position and weather

sailwx.info

Track history (hours):
 
Tides and Currents Weather Stations Pressure Air Temp Water Temp Dewpoint Dewpoint Depression Visibility Wind Speed Wind Dir Waves Ship Positions

Paramount Hamilton

Last reported at 2015-Aug-03 14:24 UTC. Time now 2015-Aug-03 15:08 UTC.
Position N 28°08' W 015°23'.

Length 250 m; draft 8.5 m.

Type: Tanker. MMSI: 235076274.

Date/timePositionNaut miles runAvg speedWind from/ knotsBaromVisibWave heightAir tempDewpointWater temp
2015-Aug-03 14:24N 28°08' W 015°23'0 0.0
2015-Aug-03 13:27N 28°08' W 015°24'0 0.1
2015-Aug-03 12:27N 28°08' W 015°23'0 0.0
2015-Aug-03 11:27N 28°08' W 015°23'0 0.1
2015-Aug-03 10:30N 28°08' W 015°23'0 0.2
2015-Aug-03 09:30N 28°08' W 015°24'0 0.0
2015-Aug-03 08:30N 28°08' W 015°24'0 0.0
2015-Aug-03 07:33N 28°08' W 015°23'0 0.1
2015-Aug-03 06:33N 28°08' W 015°23'0 0.1
2015-Aug-03 05:33N 28°08' W 015°23'1 0.7
2015-Aug-03 04:34N 28°08' W 015°23'8 7.8
2015-Aug-03 03:34N 28°13' W 015°16'1212.4
2015-Aug-03 02:34N 28°25' W 015°13'1414.1
2015-Aug-03 01:33N 28°38' W 015°08'1414.1
2015-Aug-03 00:33N 28°52' W 015°03'1413.9
2015-Aug-02 23:32N 29°05' W 014°59'1814.1
2015-Aug-02 22:15N 29°23' W 014°54'1414.1
2015-Aug-02 21:15N 29°36' W 014°50'1014.0
2015-Aug-02 20:31N 29°46' W 014°47'1413.6
2015-Aug-02 19:29N 30°00' W 014°43'1813.5
2015-Aug-02 18:08N 30°18' W 014°40'3 1.9
2015-Aug-02 16:27N 30°21' W 014°39'1 1.1
2015-Aug-02 15:21N 30°22' W 014°39'1 1.1
2015-Aug-02 14:16N 30°23' W 014°40'1 0.9
2015-Aug-02 13:33N 30°24' W 014°40'1 0.6
2015-Aug-02 12:33N 30°24' W 014°40'1 0.6
2015-Aug-02 11:33N 30°25' W 014°41'1 0.7
2015-Aug-02 10:33N 30°26' W 014°41'  
2015-Jul-30 00:19N 44°02' W 006°04'1113.3
2015-Jul-29 23:27N 43°60' W 005°49'2513.3
2015-Jul-29 21:32N 43°55' W 005°14'  
2015-Jul-27 10:27N 46°29' W 004°57'1413.9
2015-Jul-27 09:28N 46°41' W 005°05'1913.7
2015-Jul-27 08:05N 46°59' W 005°15'19710.1
2015-Jul-26 12:30N 50°05' W 003°39'1010.7
2015-Jul-26 11:33N 50°11' W 003°26'1211.6
2015-Jul-26 10:34N 50°23' W 003°23'5 4.6
2015-Jul-26 09:33N 50°27' W 003°20'1313.2
2015-Jul-26 08:33N 50°27' W 002°59'4113.6
2015-Jul-26 05:33N 50°27' W 001°55'1312.8
2015-Jul-26 04:33N 50°27' W 001°35'1211.9
2015-Jul-26 03:33N 50°27' W 001°16'1111.3
2015-Jul-26 02:33N 50°27' W 000°58'1211.7
2015-Jul-26 01:33N 50°28' W 000°40'1512.8
2015-Jul-26 00:23N 50°29' W 000°16'1113.3
2015-Jul-25 23:33N 50°31' E 000°01'1413.7
2015-Jul-25 22:34N 50°35' E 000°21'1413.7
2015-Jul-25 21:33N 50°40' E 000°41'1313.4
2015-Jul-25 20:33N 50°48' E 000°59'1312.6
2015-Jul-25 19:33N 50°54' E 001°16'1212.1
2015-Jul-25 18:33N 51°03' E 001°29'1312.5
2015-Jul-25 17:33N 51°12' E 001°43'1313.4
2015-Jul-25 16:33N 51°24' E 001°53'1413.9
2015-Jul-25 15:34N 51°35' E 002°06'15910.4
2015-Jul-25 00:20N 54°09' E 001°06'1113.7
2015-Jul-24 23:33N 54°13' E 000°49'1313.5
2015-Jul-24 22:33N 54°22' E 000°32'1414.1
2015-Jul-24 21:33N 54°33' E 000°17'1414.0
2015-Jul-24 20:33N 54°44' E 000°03'1514.6
2015-Jul-24 19:32N 54°56' W 000°12'1513.0
2015-Jul-24 18:25N 55°08' W 000°27'1213.7
2015-Jul-24 17:32N 55°17' W 000°40'1313.2
2015-Jul-24 16:33N 55°28' W 000°54'  
Track history (hours):
 
Tides and Currents Weather Stations Pressure Air Temp Water Temp Dewpoint Dewpoint Depression Visibility Wind Speed Wind Dir Waves Ship Positions

Paramount Hamilton

Last reported at 2015-Aug-03 14:24 UTC. Time now 2015-Aug-03 15:09 UTC.
Position N 28°08' W 015°23'.

Length 250 m; draft 8.5 m.

Type: Tanker. MMSI: 235076274.

Date/timePositionNaut miles runAvg speedWind from/ knotsBaromVisibWave heightAir tempDewpointWater temp
2015-Aug-03 14:24N 28°08' W 015°23'0 0.0
2015-Aug-03 13:27N 28°08' W 015°24'0 0.1
2015-Aug-03 12:27N 28°08' W 015°23'0 0.0
2015-Aug-03 11:27N 28°08' W 015°23'0 0.1
2015-Aug-03 10:30N 28°08' W 015°23'0 0.2
2015-Aug-03 09:30N 28°08' W 015°24'0 0.0
2015-Aug-03 08:30N 28°08' W 015°24'0 0.0
2015-Aug-03 07:33N 28°08' W 015°23'0 0.1
2015-Aug-03 06:33N 28°08' W 015°23'0 0.1
2015-Aug-03 05:33N 28°08' W 015°23'1 0.7
2015-Aug-03 04:34N 28°08' W 015°23'8 7.8
2015-Aug-03 03:34N 28°13' W 015°16'1212.4
2015-Aug-03 02:34N 28°25' W 015°13'1414.1
2015-Aug-03 01:33N 28°38' W 015°08'1414.1
2015-Aug-03 00:33N 28°52' W 015°03'1413.9
2015-Aug-02 23:32N 29°05' W 014°59'1814.1
2015-Aug-02 22:15N 29°23' W 014°54'1414.1
2015-Aug-02 21:15N 29°36' W 014°50'1014.0
2015-Aug-02 20:31N 29°46' W 014°47'1413.6
2015-Aug-02 19:29N 30°00' W 014°43'1813.5
2015-Aug-02 18:08N 30°18' W 014°40'3 1.9
2015-Aug-02 16:27N 30°21' W 014°39'1 1.1
2015-Aug-02 15:21N 30°22' W 014°39'1 1.1
2015-Aug-02 14:16N 30°23' W 014°40'1 0.9
2015-Aug-02 13:33N 30°24' W 014°40'1 0.6
2015-Aug-02 12:33N 30°24' W 014°40'1 0.6
2015-Aug-02 11:33N 30°25' W 014°41'1 0.7
2015-Aug-02 10:33N 30°26' W 014°41'  
2015-Jul-30 00:19N 44°02' W 006°04'1113.3
2015-Jul-29 23:27N 43°60' W 005°49'2513.3
2015-Jul-29 21:32N 43°55' W 005°14'  
2015-Jul-27 10:27N 46°29' W 004°57'1413.9
2015-Jul-27 09:28N 46°41' W 005°05'1913.7
2015-Jul-27 08:05N 46°59' W 005°15'19710.1
2015-Jul-26 12:30N 50°05' W 003°39'1010.7
2015-Jul-26 11:33N 50°11' W 003°26'1211.6
2015-Jul-26 10:34N 50°23' W 003°23'5 4.6
2015-Jul-26 09:33N 50°27' W 003°20'1313.2
2015-Jul-26 08:33N 50°27' W 002°59'4113.6
2015-Jul-26 05:33N 50°27' W 001°55'1312.8
2015-Jul-26 04:33N 50°27' W 001°35'1211.9
2015-Jul-26 03:33N 50°27' W 001°16'1111.3
2015-Jul-26 02:33N 50°27' W 000°58'1211.7
2015-Jul-26 01:33N 50°28' W 000°40'1512.8
2015-Jul-26 00:23N 50°29' W 000°16'1113.3
2015-Jul-25 23:33N 50°31' E 000°01'1413.7
2015-Jul-25 22:34N 50°35' E 000°21'1413.7
2015-Jul-25 21:33N 50°40' E 000°41'1313.4
2015-Jul-25 20:33N 50°48' E 000°59'1312.6
2015-Jul-25 19:33N 50°54' E 001°16'1212.1
2015-Jul-25 18:33N 51°03' E 001°29'1312.5
2015-Jul-25 17:33N 51°12' E 001°43'1313.4
2015-Jul-25 16:33N 51°24' E 001°53'1413.9
2015-Jul-25 15:34N 51°35' E 002°06'15910.4
2015-Jul-25 00:20N 54°09' E 001°06'1113.7
2015-Jul-24 23:33N 54°13' E 000°49'1313.5
2015-Jul-24 22:33N 54°22' E 000°32'1414.1
2015-Jul-24 21:33N 54°33' E 000°17'1414.0
2015-Jul-24 20:33N 54°44' E 000°03'1514.6
2015-Jul-24 19:32N 54°56' W 000°12'1513.0
2015-Jul-24 18:25N 55°08' W 000°27'1213.7
2015-Jul-24 17:32N 55°17' W 000°40'1313.2
2015-Jul-24 16:33N 55°28' W 000°54'  

Dump ship's entire track history